Iridium 42 - Orbit

View from above orbital plane
View from above orbital plane
View from above satellite
View from above satellite

Ground track
Ground track

The orbit data is extracted from the following two-line orbital elements,

1 25077U 97077A   13140.47840276  .00000297  00000-0  98987-4 0  3300
2 25077 086.3957 284.1920 0002272 106.3859 253.7586 14.34219090808793
Epoch (UTC): 20 May 2013 11:28:53
Eccentricity: 0.0002272
inclination: 86.3957°
perigee height: 776 km
apogee height: 779 km
right ascension of ascending node: 284.1920°
argument of perigee: 106.3859°
revolutions per day: 14.34219090
mean anomaly at epoch: 253.7586°
orbit number at epoch: 80879

The dashed part of the orbit path shows where the satellite is in the earth's shadow,  

Developed and maintained by Chris Peat, Heavens-Above GmbH. Please read the updated FAQ before sending e-mail. Imprint. DLR